CEB699 RPLL-RPVM

Flight info

Callsign CEB699
Flight time N/A
Altitude 35000
Route IPATA4V IPATA W25 BATAY BATAY3P
Aircraft A20N/M-SDE2E3FGHIRWXY/LB1

Departure

Time 2026-04-30 08:10
Airport Ninoy Aquino International Airport (RPLL)

Arrival

Time N/A
Airport Mactan Cebu International Airport (RPVM)
Time Latitude Longitude Altitude Speed Heading
2026-04-30 08:00 14.52269 121.00924 68 ft 0 kts 45°
2026-04-30 08:03 14.52247 121.00902 68 ft 2 kts 45°
2026-04-30 08:03 14.52224 121.00878 59 ft 2 kts 45°
2026-04-30 08:03 14.52212 121.00866 63 ft 2 kts 46°
2026-04-30 08:04 14.52200 121.00855 59 ft 2 kts 19°
2026-04-30 08:04 14.52184 121.00852 64 ft 2 kts 354°
2026-04-30 08:04 14.52168 121.00857 59 ft 2 kts 322°
2026-04-30 08:04 14.52157 121.00866 66 ft 1 kts 315°
2026-04-30 08:05 14.52156 121.00868 67 ft 0 kts 315°
2026-04-30 08:06 14.52168 121.00855 59 ft 8 kts 315°
2026-04-30 08:06 14.52238 121.00783 65 ft 18 kts 315°
2026-04-30 08:07 14.52334 121.00686 68 ft 21 kts 315°
2026-04-30 08:07 14.52437 121.00579 66 ft 19 kts 315°
2026-04-30 08:07 14.52488 121.00526 63 ft 4 kts 313°
2026-04-30 08:07 14.52490 121.00501 65 ft 4 kts 250°
2026-04-30 08:08 14.52463 121.00469 66 ft 7 kts 224°
2026-04-30 08:08 14.52420 121.00427 66 ft 8 kts 224°
2026-04-30 08:08 14.52371 121.00404 62 ft 8 kts 165°
2026-04-30 08:08 14.52326 121.00440 64 ft 4 kts 134°
2026-04-30 08:09 14.52320 121.00447 68 ft 2 kts 135°
2026-04-30 08:09 14.52304 121.00463 62 ft 5 kts 135°
2026-04-30 08:09 14.52242 121.00526 68 ft 38 kts 135°
2026-04-30 08:09 14.51865 121.00916 66 ft 112 kts 135°
2026-04-30 08:10 14.51170 121.01619 184 ft 156 kts 137°
2026-04-30 08:10 14.50424 121.02372 998 ft 152 kts 133°
2026-04-30 08:10 14.49679 121.03185 1717 ft 155 kts 131°
2026-04-30 08:10 14.48936 121.03986 2370 ft 164 kts 131°
2026-04-30 08:11 14.48085 121.04881 2799 ft 185 kts 132°
2026-04-30 08:11 14.47120 121.05872 3238 ft 207 kts 133°
2026-04-30 08:11 14.46039 121.06978 3545 ft 232 kts 134°
2026-04-30 08:11 14.44835 121.08206 3974 ft 255 kts 134°
2026-04-30 08:12 14.43547 121.09538 4611 ft 267 kts 130°
2026-04-30 08:12 14.42424 121.11087 5393 ft 272 kts 121°
2026-04-30 08:12 14.41408 121.12754 6211 ft 277 kts 121°
2026-04-30 08:12 14.40366 121.14444 7038 ft 280 kts 121°
2026-04-30 08:13 14.39333 121.16108 7928 ft 279 kts 121°
2026-04-30 08:13 14.38281 121.17800 8770 ft 281 kts 122°
2026-04-30 08:13 14.37221 121.19504 9631 ft 283 kts 122°
2026-04-30 08:13 14.36152 121.21224 10332 ft 289 kts 122°
2026-04-30 08:14 14.35030 121.23028 10621 ft 310 kts 122°
2026-04-30 08:14 14.33821 121.24971 10831 ft 332 kts 122°
2026-04-30 08:14 14.32555 121.27006 11371 ft 340 kts 122°
2026-04-30 08:14 14.31274 121.29062 12085 ft 343 kts 122°
2026-04-30 08:15 14.29977 121.31144 12742 ft 347 kts 122°
2026-04-30 08:15 14.28685 121.33218 13411 ft 351 kts 121°
2026-04-30 08:15 14.27356 121.35353 14010 ft 355 kts 122°
2026-04-30 08:15 14.26019 121.37499 14622 ft 357 kts 122°
2026-04-30 08:16 14.24669 121.39663 15217 ft 360 kts 122°
2026-04-30 08:16 14.23308 121.41844 15799 ft 364 kts 122°
2026-04-30 08:16 14.21933 121.44047 16399 ft 366 kts 122°
2026-04-30 08:16 14.20550 121.46263 16988 ft 369 kts 122°
2026-04-30 08:17 14.19153 121.48498 17534 ft 373 kts 122°
2026-04-30 08:17 14.17766 121.50718 18110 ft 375 kts 122°
2026-04-30 08:17 14.16347 121.52988 18586 ft 378 kts 122°
2026-04-30 08:17 14.14915 121.55279 19019 ft 383 kts 122°
2026-04-30 08:18 14.13468 121.57594 19457 ft 387 kts 122°
2026-04-30 08:18 14.12006 121.59930 19911 ft 390 kts 122°
2026-04-30 08:18 14.10441 121.62236 20324 ft 395 kts 128°
2026-04-30 08:18 14.08591 121.64338 20776 ft 398 kts 135°
2026-04-30 08:19 14.06472 121.66200 21198 ft 403 kts 143°
2026-04-30 08:19 14.04237 121.67886 21639 ft 406 kts 143°
2026-04-30 08:19 14.01953 121.69621 22058 ft 410 kts 143°
2026-04-30 08:19 13.99652 121.71375 22492 ft 413 kts 143°
2026-04-30 08:20 13.97327 121.73149 22900 ft 417 kts 143°
2026-04-30 08:20 13.94988 121.74933 23338 ft 420 kts 143°
2026-04-30 08:20 13.92633 121.76729 23722 ft 423 kts 143°
2026-04-30 08:20 13.90262 121.78536 24114 ft 424 kts 143°
2026-04-30 08:21 13.87918 121.80322 24507 ft 426 kts 144°
2026-04-30 08:21 13.85533 121.82138 24887 ft 427 kts 144°
2026-04-30 08:21 13.83133 121.83953 25253 ft 430 kts 144°
2026-04-30 08:21 13.80719 121.85773 25614 ft 431 kts 144°
2026-04-30 08:22 13.78297 121.87599 25990 ft 433 kts 144°
2026-04-30 08:22 13.75860 121.89437 26328 ft 435 kts 144°
2026-04-30 08:22 13.73416 121.91281 26662 ft 437 kts 144°
2026-04-30 08:22 13.70959 121.93133 26989 ft 439 kts 144°
2026-04-30 08:23 13.68490 121.94995 27319 ft 441 kts 144°
2026-04-30 08:23 13.66042 121.96841 27625 ft 443 kts 144°
2026-04-30 08:23 13.63550 121.98718 27921 ft 446 kts 144°
2026-04-30 08:23 13.61044 122.00606 28218 ft 448 kts 144°
2026-04-30 08:24 13.58527 122.02503 28514 ft 450 kts 144°
2026-04-30 08:24 13.55996 122.04408 28799 ft 452 kts 144°
2026-04-30 08:24 13.53453 122.06323 29066 ft 454 kts 144°
2026-04-30 08:24 13.50898 122.08246 29341 ft 457 kts 144°
2026-04-30 08:25 13.48326 122.10181 29623 ft 459 kts 144°
2026-04-30 08:25 13.45746 122.12121 29886 ft 461 kts 144°
2026-04-30 08:25 13.43189 122.14045 30129 ft 463 kts 144°
2026-04-30 08:25 13.40586 122.16002 30396 ft 464 kts 144°
2026-04-30 08:26 13.37973 122.17966 30653 ft 466 kts 144°
2026-04-30 08:26 13.35356 122.19933 30908 ft 467 kts 144°
2026-04-30 08:26 13.32735 122.21901 31233 ft 467 kts 144°
2026-04-30 08:26 13.30120 122.23865 31602 ft 465 kts 144°
2026-04-30 08:27 13.27509 122.25826 31979 ft 464 kts 144°
2026-04-30 08:27 13.24912 122.27775 32338 ft 462 kts 144°
2026-04-30 08:27 13.22322 122.29719 32696 ft 461 kts 145°
2026-04-30 08:27 13.19741 122.31655 33020 ft 459 kts 145°
2026-04-30 08:28 13.17199 122.33561 33363 ft 458 kts 145°
2026-04-30 08:28 13.14632 122.35486 33676 ft 457 kts 145°
2026-04-30 08:28 13.12066 122.37410 33965 ft 456 kts 145°
2026-04-30 08:28 13.09508 122.39326 34202 ft 455 kts 145°
2026-04-30 08:29 13.06948 122.41244 34418 ft 456 kts 145°
2026-04-30 08:29 13.04391 122.43159 34625 ft 456 kts 145°
2026-04-30 08:29 13.01830 122.45077 34810 ft 456 kts 145°
2026-04-30 08:30 12.96750 122.48878 34881 ft 454 kts 145°
2026-04-30 08:30 12.91648 122.52695 34880 ft 454 kts 145°
2026-04-30 08:31 12.86537 122.56517 34886 ft 455 kts 145°
2026-04-30 08:31 12.81429 122.60334 34886 ft 454 kts 144°
2026-04-30 08:32 12.76356 122.64123 34883 ft 454 kts 144°
2026-04-30 08:32 12.71243 122.67939 34882 ft 455 kts 144°
2026-04-30 08:33 12.66135 122.71751 34883 ft 455 kts 144°
2026-04-30 08:33 12.61018 122.75566 34884 ft 455 kts 144°
2026-04-30 08:34 12.55938 122.79353 34882 ft 455 kts 144°
2026-04-30 08:34 12.50825 122.83162 34887 ft 455 kts 144°
2026-04-30 08:35 12.45704 122.86976 34883 ft 455 kts 144°
2026-04-30 08:35 12.40589 122.90782 34881 ft 455 kts 144°
2026-04-30 08:36 12.35467 122.94593 34884 ft 455 kts 144°
2026-04-30 08:36 12.30353 122.98396 34885 ft 455 kts 144°